When you browse on this site, cookies collect data to enhance your experience and personalize the content and advertising you see.
Visit our Privacy Policy to learn more. By continuing to use the site, you agree to this use of cookies and data.

Hourly Weather Albuquerque

Today, 11 August, Tuesday

Time Temperature Precipitation Wind Pressure Humidity
00:00 +29°C° 0 mm 2 mps 639 mmHg 18%
01:00 +28°C° 0 mm 2 mps 639 mmHg 19%
02:00 +27°C° 0 mm 2 mps 638 mmHg 20%
03:00 +27°C° 0 mm 2 mps 638 mmHg 21%
04:00 +26°C° 0 mm 2 mps 638 mmHg 22%
05:00 +25°C° 0 mm 1 mps 638 mmHg 23%
06:00 +27°C° 0 mm 2 mps 639 mmHg 19%
07:00 +28°C° 0 mm 3 mps 640 mmHg 16%
08:00 +30°C° 0 mm 3 mps 640 mmHg 12%
09:00 +33°C° 0 mm 4 mps 641 mmHg 11%
10:00 +34°C° 0 mm 5 mps 641 mmHg 9%
11:00 +36°C° 0 mm 5 mps 642 mmHg 8%
12:00 +36°C° 0 mm 5 mps 641 mmHg 8%
13:00 +37°C° 0 mm 4 mps 641 mmHg 9%
14:00 +37°C° 0 mm 4 mps 640 mmHg 10%
15:00 +37°C° 0 mm 4 mps 640 mmHg 11%
16:00 +37°C° 0 mm 5 mps 640 mmHg 13%
17:00 +36°C° 0 mm 5 mps 640 mmHg 14%
18:00 +35°C° 0 mm 4 mps 640 mmHg 16%
19:00 +33°C° 0 mm 3 mps 639 mmHg 18%
20:00 +31°C° 0 mm 2 mps 639 mmHg 19%
21:00 +30°C° 0 mm 2 mps 639 mmHg 20%
22:00 +29°C° 0 mm 2 mps 639 mmHg 20%
23:00 +29°C° 0 mm 3 mps 639 mmHg 20%

Tomorrow, 12 August, Wednesday

Time Temperature Precipitation Wind Pressure Humidity
00:00 +28°C° 0 mm 2 mps 639 mmHg 21%
01:00 +27°C° 0 mm 2 mps 639 mmHg 22%
02:00 +26°C° 0 mm 2 mps 638 mmHg 23%
03:00 +26°C° 0 mm 2 mps 638 mmHg 23%
04:00 +25°C° 0 mm 2 mps 638 mmHg 23%
05:00 +25°C° 0 mm 2 mps 638 mmHg 23%
06:00 +26°C° 0 mm 2 mps 639 mmHg 21%
07:00 +28°C° 0 mm 2 mps 640 mmHg 19%
08:00 +30°C° 0 mm 1 mps 641 mmHg 16%
09:00 +31°C° 0 mm 1 mps 641 mmHg 16%
10:00 +33°C° 0 mm 1 mps 641 mmHg 15%
11:00 +35°C° 0 mm 2 mps 641 mmHg 14%
12:00 +36°C° 0 mm 2 mps 641 mmHg 14%
13:00 +37°C° 0 mm 3 mps 641 mmHg 14%
14:00 +37°C° 0 mm 3 mps 641 mmHg 13%
15:00 +37°C° 0 mm 3 mps 641 mmHg 14%
16:00 +37°C° 0 mm 3 mps 640 mmHg 14%
17:00 +37°C° 0 mm 3 mps 640 mmHg 14%
18:00 +35°C° 0 mm 4 mps 640 mmHg 19%
19:00 +33°C° 0 mm 5 mps 640 mmHg 24%
20:00 +30°C° 0 mm 5 mps 640 mmHg 29%
21:00 +29°C° 0 mm 4 mps 640 mmHg 30%
22:00 +29°C° 0 mm 3 mps 640 mmHg 32%
23:00 +29°C° 0 mm 2 mps 640 mmHg 34%

Day after tomorrow, 13 August, Thursday

Time Temperature Precipitation Wind Pressure Humidity
00:00 +28°C° 0 mm 2 mps 640 mmHg 35%
01:00 +27°C° 0 mm 1 mps 640 mmHg 36%
02:00 +27°C° 0 mm 1 mps 639 mmHg 38%
03:00 +26°C° 0 mm 1 mps 639 mmHg 39%
04:00 +26°C° 0 mm 1 mps 639 mmHg 41%
05:00 +25°C° 0 mm 1 mps 639 mmHg 43%
06:00 +26°C° 0 mm 1 mps 639 mmHg 39%
07:00 +28°C° 0 mm 1 mps 640 mmHg 35%
08:00 +29°C° 0 mm 1 mps 641 mmHg 31%
09:00 +31°C° 0 mm 1 mps 641 mmHg 28%
10:00 +32°C° 0 mm 1 mps 641 mmHg 25%
11:00 +34°C° 0 mm 2 mps 641 mmHg 22%
12:00 +35°C° 0 mm 2 mps 641 mmHg 20%
13:00 +36°C° 0 mm 3 mps 641 mmHg 19%
14:00 +37°C° 0 mm 3 mps 641 mmHg 17%
15:00 +38°C° 0 mm 3 mps 641 mmHg 17%
16:00 +38°C° 0 mm 3 mps 641 mmHg 17%
17:00 +38°C° 0 mm 4 mps 641 mmHg 16%
18:00 +35°C° 0.2 mm 5 mps 641 mmHg 22%
19:00 +33°C° 0.2 mm 6 mps 640 mmHg 28%
20:00 +30°C° 0.2 mm 7 mps 640 mmHg 34%
21:00 +29°C° 0.3 mm 6 mps 640 mmHg 36%
22:00 +28°C° 0.3 mm 5 mps 640 mmHg 38%
23:00 +28°C° 0.3 mm 4 mps 640 mmHg 41%

14 August, Friday

Time Temperature Precipitation Wind Pressure Humidity
00:00 +27°C° 0.1 mm 3 mps 640 mmHg 42%
01:00 +27°C° 0.1 mm 2 mps 640 mmHg 43%
02:00 +27°C° 0.1 mm 1 mps 640 mmHg 44%
03:00 +26°C° 0 mm 1 mps 639 mmHg 45%
04:00 +26°C° 0 mm 1 mps 639 mmHg 46%
05:00 +25°C° 0 mm 1 mps 639 mmHg 47%
06:00 +27°C° 0 mm 1 mps 639 mmHg 43%
07:00 +28°C° 0 mm 1 mps 640 mmHg 39%
08:00 +29°C° 0 mm 1 mps 640 mmHg 35%
09:00 +30°C° 0 mm 2 mps 640 mmHg 31%
10:00 +32°C° 0 mm 2 mps 640 mmHg 28%
11:00 +34°C° 0 mm 2 mps 640 mmHg 24%
12:00 +35°C° 0 mm 3 mps 640 mmHg 22%
13:00 +36°C° 0 mm 3 mps 640 mmHg 21%
14:00 +37°C° 0 mm 3 mps 640 mmHg 19%
15:00 +37°C° 0 mm 3 mps 640 mmHg 18%
16:00 +37°C° 0 mm 3 mps 640 mmHg 17%
17:00 +37°C° 0 mm 2 mps 639 mmHg 17%
18:00 +36°C° 0 mm 3 mps 639 mmHg 19%
19:00 +34°C° 0 mm 3 mps 639 mmHg 22%
20:00 +33°C° 0 mm 3 mps 639 mmHg 24%
21:00 +31°C° 0 mm 3 mps 639 mmHg 27%
22:00 +29°C° 0 mm 4 mps 639 mmHg 30%
23:00 +28°C° 0 mm 4 mps 639 mmHg 33%

15 August, Saturday

Time Temperature Precipitation Wind Pressure Humidity
00:00 +28°C° 0 mm 4 mps 639 mmHg 35%
01:00 +27°C° 0 mm 4 mps 639 mmHg 36%
02:00 +27°C° 0 mm 3 mps 638 mmHg 37%
03:00 +26°C° 0 mm 3 mps 638 mmHg 39%
04:00 +25°C° 0 mm 3 mps 638 mmHg 41%
05:00 +24°C° 0 mm 2 mps 637 mmHg 43%
06:00 +26°C° 0 mm 2 mps 638 mmHg 39%
07:00 +27°C° 0 mm 2 mps 639 mmHg 36%
08:00 +29°C° 0 mm 2 mps 639 mmHg 32%
09:00 +30°C° 0 mm 2 mps 640 mmHg 29%
10:00 +32°C° 0 mm 2 mps 640 mmHg 26%
11:00 +34°C° 0 mm 2 mps 640 mmHg 23%
12:00 +36°C° 0 mm 3 mps 640 mmHg 20%
13:00 +37°C° 0 mm 3 mps 640 mmHg 17%
14:00 +38°C° 0 mm 3 mps 640 mmHg 14%
15:00 +38°C° 0 mm 4 mps 640 mmHg 13%
16:00 +40°C° 0 mm 5 mps 639 mmHg 12%
17:00 +40°C° 0 mm 6 mps 639 mmHg 11%
18:00 +36°C° 0 mm 6 mps 639 mmHg 17%
19:00 +33°C° 0 mm 6 mps 639 mmHg 23%
20:00 +30°C° 0 mm 7 mps 638 mmHg 30%
21:00 +29°C° 0 mm 5 mps 638 mmHg 33%
22:00 +28°C° 0 mm 4 mps 639 mmHg 36%
23:00 +27°C° 0 mm 3 mps 639 mmHg 40%

16 August, Sunday

Time Temperature Precipitation Wind Pressure Humidity
00:00 +27°C° 0 mm 2 mps 639 mmHg 41%
01:00 +26°C° 0 mm 2 mps 638 mmHg 43%
02:00 +26°C° 0 mm 1 mps 638 mmHg 44%
03:00 +25°C° 0 mm 1 mps 638 mmHg 45%
04:00 +25°C° 0 mm 2 mps 638 mmHg 46%
05:00 +24°C° 0 mm 2 mps 639 mmHg 46%
06:00 +26°C° 0 mm 2 mps 639 mmHg 42%
07:00 +28°C° 0 mm 3 mps 640 mmHg 37%
08:00 +29°C° 0 mm 3 mps 641 mmHg 32%
09:00 +31°C° 0 mm 3 mps 641 mmHg 28%
10:00 +34°C° 0 mm 3 mps 641 mmHg 24%
11:00 +35°C° 0 mm 4 mps 642 mmHg 20%
12:00 +36°C° 0 mm 5 mps 642 mmHg 19%
13:00 +38°C° 0 mm 6 mps 642 mmHg 17%
14:00 +39°C° 0 mm 7 mps 642 mmHg 16%
15:00 +38°C° 0 mm 7 mps 642 mmHg 17%
16:00 +38°C° 0 mm 8 mps 641 mmHg 19%
17:00 +37°C° 0 mm 8 mps 641 mmHg 21%
18:00 +34°C° 0 mm 7 mps 641 mmHg 22%
19:00 +33°C° 0 mm 6 mps 642 mmHg 24%
20:00 +30°C° 0 mm 5 mps 642 mmHg 26%
21:00 +29°C° 0 mm 5 mps 642 mmHg 31%
22:00 +28°C° 0 mm 5 mps 642 mmHg 36%
23:00 +27°C° 0 mm 5 mps 643 mmHg 40%
Show more